Погода в Шестиозерском

Россия / Архангельская область     61°48′34″N   40°12′10″E
темп.,
°C
ветер,
м/с
пор.,
м/с
влажн.,
%
обл.,
%
осадки,
мм/ч
давл.,
гПа
погр.,
м
26 июля, пн
пн2600:00+12зюз279398 0.3 1016169
03:00+11зюз269460 0.4 1016124
06:00+13зсз279096 0.0 1017191
09:00+19з375799 0.0 1016784
12:00+17с4878100 0.6 1017744
15:00+18сз476925 1.1 10171183
18:00+18сз48705 0.9 10171088
21:00+14сз376729 0.9 1018230
27 июля, вт
вт2700:00+8с23897 0.0 102054
03:00+6с24831 0.0 102273
06:00+9с24660 0.0 1022176
09:00+15ссз24479 0.0 1021851
12:00+18ссз35385 0.0 10201528
15:00+20сз35334 0.0 10191962
18:00+20сз363612 0.0 10171968
21:00+13ссз116284 0.0 101711
28 июля, ср
ср2800:00+11сз22618 0.0 101817
03:00+8сз11688 0.0 101711
06:00+12зсз13585 0.0 1016100
09:00+19зюз35425 0.0 1013544
12:00+24зюз483773 0.0 10101789
15:00+24з384394 0.0 10081381
18:00+15ю239466 4.5 100862
21:00+14ююв119723 4.8 100712
29 июля, чт
чт2900:00+13зюз249715 2.8 100664
03:00+13зюз23965 3.1 100551
06:00+15зсз12925 0.0 100483
09:00+21ю236046 0.0 1002460
12:00+26юз3542100 0.0 10011662
15:00+23з365598 0.6 10001031
18:00+19вюв128096 1.9 99994
21:00+16з51198100 4.2 999427
30 июля, пт
пт3000:00+15ююз3998100 1.4 997312
03:00+15юз41198100 1.7 997557
06:00+15зюз51197100 0.1 997806
09:00+17зюз5108780 0.4 998965
12:00+14юз41297100 1.7 9991093
15:00+15з51395100 2.3 1000897
18:00+20зсз4117334 0.3 10011372
21:00+18з4126276 0.4 1002557